This demonstration page uses our WeatherBlox Daily Observations layout. Learn more.

Left ArrowRight Arrow

53.62937, 11.41316

Hourly Observations for April 2, 2016

Temp ( °F °C ) Dew Point ( °F °C ) Humidity (%) Winds ( mph kmh ) Pressure ( in mb ) Visibility ( mi km ) Precip ( " mm )
6:20 am 06:20 Mostly Clear 32 0 27 -3 80 80 ENE 9 15 30.18 1022 7 11 N/A
6:50 am 06:50 Mostly Sunny 32 0 27 -3 80 80 ENE 8 13 30.18 1022 7 11 N/A
7:20 am 07:20 Mostly Sunny 34 1 27 -3 75 75 ENE 7 11 30.18 1022 7 11 N/A
7:50 am 07:50 Mostly Sunny 34 1 28 -2 81 81 ENE 8 13 30.18 1022 7 11 N/A
8:20 am 08:20 Mostly Sunny 36 2 30 -1 81 81 ENE 9 15 30.18 1022 7 11 N/A
8:50 am 08:50 Mostly Sunny 41 5 34 1 76 76 E 7 11 30.18 1022 7 11 N/A
9:20 am 09:20 Mostly Sunny 43 6 34 1 71 71 ESE 6 9 30.18 1022 7 11 N/A
9:50 am 09:50 Mostly Sunny 46 8 36 2 66 66 E 7 11 30.18 1022 7 11 N/A
10:20 am 10:20 Mostly Sunny 50 10 36 2 58 58 SE 15 24 30.18 1022 7 11 N/A
10:50 am 10:50 Mostly Sunny 50 10 32 0 50 50 SSE 16 26 30.15 1021 7 11 N/A
10:51 am 10:51 Mostly Sunny 52 11 32 0 47 47 SSE 18 30 30.15 1021 7 11 N/A
11:20 am 11:20 Mostly Sunny 52 11 30 -1 44 44 SSE 17 28 30.15 1021 7 11 N/A
11:50 am 11:50 Mostly Sunny 54 12 30 -1 41 41 SSE 17 28 30.15 1021 7 11 N/A
12:20 pm 12:20 Mostly Sunny 54 12 30 -1 41 41 SSE 15 24 30.15 1021 7 11 N/A
12:50 pm 12:50 Mostly Sunny 54 12 30 -1 41 41 SSE 15 24 30.12 1020 7 11 N/A
1:20 pm 13:20 Mostly Sunny 55 13 30 -1 38 38 SSE 14 22 30.12 1020 7 11 N/A
1:50 pm 13:50 Mostly Sunny 55 13 30 -1 38 38 SE 14 22 30.12 1020 7 11 N/A
2:20 pm 14:20 Mostly Sunny 57 14 32 0 39 39 SSE 15 24 30.09 1019 7 11 N/A
2:50 pm 14:50 Mostly Sunny 57 14 36 2 44 44 SSE 15 24 30.09 1019 7 11 N/A
3:20 pm 15:20 Mostly Sunny 59 15 37 3 45 45 SSE 16 26 30.09 1019 7 11 N/A
3:50 pm 15:50 Mostly Sunny 59 15 36 2 42 42 SE 16 26 30.06 1018 7 11 N/A
4:20 pm 16:20 Mostly Sunny 59 15 37 3 45 45 SSE 15 24 30.06 1018 7 11 N/A
4:50 pm 16:50 Mostly Sunny 59 15 37 3 45 45 SSE 15 24 30.06 1018 7 11 N/A
5:20 pm 17:20 Mostly Sunny 59 15 39 4 48 48 SSE 14 22 30.03 1017 7 11 N/A
5:50 pm 17:50 Mostly Sunny 59 15 39 4 48 48 S 13 20 30.03 1017 7 11 N/A
6:20 pm 18:20 Mostly Sunny 59 15 39 4 48 48 S 14 22 30.03 1017 7 11 N/A
6:50 pm 18:50 Mostly Sunny 57 14 39 4 51 51 SSE 9 15 30.03 1017 7 11 N/A

Powered by AerisWeather